Location: *
(60.4500°N, 22.2667°E)
Time: 09:09:16
(UTC+00:00)

Daily predictions for brighter satellites

Satellite Brightness Start Highest point End
(mag) Time Altitude Azimuth Time Altitude Azimuth Time Altitude Azimuth
Cosmos 2344 3.9 17:36:39 10° WSW 17:44:19 85° NNW 17:53:54 10° ENE
Meteor 1-24 Rocket 4.0 17:42:09 10° NNW 17:47:49 74° WSW 17:53:14 10° S
Cosmos 1805 3.2 17:45:19 10° S 17:49:12 68° E 17:53:06 10° NNE
RESURS DK-1 4.4 17:46:58 10° WNW 17:50:20 23° N 17:53:41 10° NE
Cosmos 1553 Rocket 4.0 17:44:58 10° S 17:51:04 87° E 17:57:14 10° NNE
SeaSat 1 2.5 17:46:27 10° NE 17:51:26 85° SE 17:56:24 10° SW
Cosmos 1656 Rocket 4.1 17:48:19 10° NW 17:53:55 52° NE 17:59:27 10° ESE
Meteor 1-15 Rocket 4.4 17:50:38 10° SSW 17:56:20 83° WNW 18:01:59 10° NNE
ARGOS 3.3 17:51:26 10° SSE 17:56:51 81° WSW 18:02:18 10° NNW
Cosmos 1461 3.6 17:53:14 10° WNW 17:57:26 50° NNE 18:01:51 10° E
TIMED 4.5 17:53:52 10° SSW 17:58:15 78° ESE 18:02:39 10° NE
CZ-4 R/B 4.3 17:59:31 10° SW 18:02:10 18° W 18:04:50 10° NW
Cosmos 2315 Rocket 4.2 17:58:23 10° SSE 18:04:29 52° E 18:10:39 10° NNE
Cosmos 1470 3.3 18:05:50 10° SSE 18:09:25 37° E 18:13:04 10° NNE
NOSS 2-1 (C) 3.4 18:06:17 10° SSW 18:09:39 46° SE 18:13:37 10° ENE
MetOp-A 4.2 18:04:23 10° SSE 18:09:45 83° ENE 18:15:09 10° NNW
Cosmos 2369 Rocket 2.3 18:04:02 10° NW 18:09:48 86° NE 18:15:31 10° SE
ATLAS CENTAUR R/B 2.0 18:06:46 10° W 18:11:07 60° NNW 18:15:09 10° ENE
SL-08 RB Rocket 3.9 18:06:41 10° SSE 18:11:14 80° WSW 18:15:52 10° NNW
ISS -1.7 18:10:23 10° SW 18:12:42 17° S 18:15:00 10° SE
ERS-1 Rocket 4.0 18:08:51 10° ESE 18:13:10 30° NE 18:17:31 10° N
Cosmos 2263 4.2 18:07:40 10° NW 18:13:21 76° NE 18:18:59 10° SE
Resurs 1-3 3.6 18:09:25 10° SSE 18:13:48 79° ENE 18:18:13 10° NNW
NOSS 2-1 (D) 3.4 18:10:27 10° SW 18:13:49 49° SE 18:17:52 10° ENE
COSMOS 2428 3.1 18:09:02 10° SW 18:14:46 73° NW 18:20:32 10° NE
SJ-6B 3.4 18:10:44 10° S 18:14:48 63° WSW 18:18:56 10° NNW
CZ-2C R/B 3.6 18:11:04 10° S 18:15:59 58° WSW 18:20:46 10° NNW
Cosmos 1758 3.8 18:13:04 10° SSE 18:16:56 42° E 18:20:50 10° NNE
IRIDIUM 114 4.4 18:12:14 10° N 18:17:27 63° E 18:22:38 10° SSE
Cosmos 1048 Rocket 4.0 18:14:14 10° SSW 18:19:23 85° SE 18:24:40 10° NNE
SPOT 5 4.0 18:16:52 11° ESE 18:20:12 25° NE 18:23:44 10° N
Meteor 2-8 Rocket 4.4 18:14:26 10° S 18:20:36 82° ESE 18:26:46 10° NNE
Resurs 01 Rocket 1.6 18:16:36 10° SSE 18:20:59 70° ENE 18:25:25 10° NNW
Meteor 1-22 Rocket 4.0 18:16:00 10° S 18:21:17 80° ESE 18:26:38 10° NNE
Meteor 1-21 Rocket 4.2 18:16:07 10° NNW 18:21:47 80° ENE 18:27:21 10° SSE
Cosmos 1709 Rocket 4.4 18:15:51 10° NNW 18:22:05 70° W 18:28:12 10° S
Cosmos 494 Rocket 3.9 18:20:37 10° SSW 18:25:44 66° ESE 18:30:56 10° NE
CZ-4C R/B 2.7 18:20:16 10° WSW 18:26:00 77° NNW 18:33:01 10° ENE
Cosmos 1733 3.3 18:22:31 10° SSW 18:26:18 81° WNW 18:30:08 10° NNE
IRIDIUM 103 4.3 18:21:25 10° N 18:26:40 71° E 18:31:53 10° SSE
SPOT 3 Rocket 3.9 18:23:27 10° S 18:28:40 71° WSW 18:33:55 10° NNW
Cosmos 921 Rocket 4.2 18:25:48 10° NNW 18:29:32 29° NE 18:32:32 14° E
MOS 1 Rocket 4.0 18:25:20 10° NNE 18:30:10 41° E 18:35:11 10° SSE
Landsat 7 4.3 18:27:41 13° SE 18:31:43 44° ENE 18:36:15 10° N
NOSS 3-4 (A) 3.8 18:25:28 10° WNW 18:32:04 89° NNE 18:38:31 14° ESE
NOSS 3-4 (C) 3.8 18:25:34 10° WNW 18:32:10 88° NNE 18:38:36 14° ESE
Meteor 2-15 4.4 18:26:41 10° S 18:32:39 66° E 18:38:40 10° NNE
Cosmos 2219 Rocket 2.9 18:27:24 10° WSW 18:32:59 59° NW 18:38:36 10° NE
Cosmos 2074 Rocket 4.0 18:28:14 10° NNW 18:34:32 76° ENE 18:40:50 10° SSE
Cosmos 1726 3.2 18:32:03 13° SE 18:34:47 27° E 18:37:59 10° NNE
Cosmos 1943 Rocket 2.6 18:29:50 10° NW 18:35:18 61° WSW 18:40:46 10° SSE
Cosmos 292 Rocket 4.0 18:30:45 10° NW 18:35:32 71° WSW 18:40:18 10° SSE
Cosmos 2228 4.2 18:34:16 15° SE 18:36:49 24° E 18:40:18 10° NNE
Cosmos 1766 4.4 18:38:18 10° SW 18:42:10 48° WNW 18:46:04 10° N
Cosmos 1980 3.8 18:36:43 10° SW 18:42:25 86° NW 18:48:10 10° NE
IRIDIUM 106 4.4 18:39:43 10° N 18:44:59 89° W 18:50:13 10° S
Cosmos 2084 3.5 18:41:55 10° SW 18:46:24 73° SSE 18:50:51 10° ENE
Cosmos 1328 3.9 18:44:12 10° N 18:48:11 59° ENE 18:51:10 17° SSE
Cosmos 1455 Rocket 3.7 18:44:49 10° SSW 18:49:08 60° WNW 18:53:30 10° N
Cosmos 1626 4.3 18:49:24 10° NNW 18:52:34 27° W 18:55:43 10° SSW
Cosmos 1437 2.5 18:51:09 10° NNW 18:54:13 86° WSW 18:56:21 18° SSE
Meteor 2-10 4.4 18:49:17 10° SSE 18:54:24 46° E 18:59:46 10° NNE
SPOT 1/Viking Rocket 3.7 18:51:28 16° SE 18:55:32 60° ENE 19:00:42 10° NNW
SL-16 R/B 2.2 18:50:17 10° SSW 18:55:50 60° ESE 19:01:26 10° NE
Cosmos 2333 Rocket 3.3 18:51:02 10° WSW 18:56:33 48° NNW 19:02:03 10° NE
SL-16 R/B 4.0 18:52:00 10° WNW 18:56:59 30° N 19:01:59 10° NE
Cosmos 1697 Rocket 4.1 18:52:06 10° NW 18:57:10 32° NNE 19:02:13 10° ENE
Spot 2 Rocket 3.5 18:52:55 13° SSE 18:57:33 81° ENE 19:02:42 10° NNW
Cosmos 1953 2.3 18:54:57 10° S 18:58:51 58° E 19:02:47 10° NNE
NOSS 2-1 (E) 3.2 18:58:17 10° WSW 19:01:52 80° SSE 19:06:22 10° ENE
DMSP B5D2-2 4.0 18:56:47 10° NNE 19:02:00 68° ESE 19:07:13 10° S
Aureole 3 3.8 18:59:41 10° S 19:04:03 77° E 19:09:42 10° NNE
Cosmos 2341 Rocket 4.3 18:58:10 10° N 19:04:25 55° ENE 19:08:56 19° SE
ATLAS 2AS CENTAUR R/B 3.0 18:56:55 10° WNW 19:04:47 78° SW 19:10:15 20° SE
Aureole 2 Rocket 3.7 19:04:27 10° NW 19:07:42 36° WSW 19:10:31 13° S
IGS 5A 3.4 19:05:47 21° SSE 19:08:30 70° ENE 19:12:40 10° NNW
H-2A R/B 4.2 19:05:09 10° SSW 19:09:33 26° W 19:13:52 10° NNW
USA 234 3.7 19:04:41 10° ENE 19:10:46 39° SE 19:16:48 10° SSW
CZ-2C R/B 3.9 19:06:51 10° NNE 19:11:41 83° WNW 19:16:26 10° SSW
Cosmos 2322 Rocket 4.0 19:07:12 10° WNW 19:12:11 29° N 19:17:08 10° NE
Cosmos 2360 Rocket 3.9 19:08:10 10° W 19:13:13 32° NNW 19:18:15 10° NE
Terra 2.3 19:10:44 23° ESE 19:13:19 44° ENE 19:17:52 10° N
Cosmos 1703 3.3 19:11:05 10° NNW 19:15:04 82° WSW 19:17:46 20° S
CARTOSAT-1 3.8 19:13:45 25° SE 19:16:03 55° ENE 19:20:17 10° N
ERBS 2.7 19:12:57 10° WSW 19:16:10 42° S 19:16:57 35° SE
Cosmos 1825 Rocket 3.9 19:12:19 10° NNW 19:16:45 65° W 19:20:41 13° S
Cosmos 1603 4.3 19:12:42 10° S 19:17:43 34° ESE 19:22:45 10° NE
Meteor 1-16 Rocket 4.2 19:12:48 10° S 19:18:03 58° E 19:23:28 10° NNE
NOSS 0 Rocket 4.5 19:14:15 10° WSW 19:20:25 63° NW 19:26:35 10° NE
Cosmos 1726 Rocket 3.9 19:18:06 23° SSE 19:20:27 45° E 19:24:42 10° NNE
Cosmos 1980 Rocket 3.7 19:17:02 10° NW 19:21:59 30° NNE 19:26:56 10° ENE
CZ-2C R/B 2.5 19:18:26 10° NNE 19:23:42 82° ESE 19:28:53 10° SSW
COSMOS 2455 2.9 19:18:12 10° NW 19:24:17 81° NE 19:28:01 25° ESE
MetOp-B 4.5 19:19:53 12° S 19:24:50 65° WSW 19:30:12 10° NNW
Cosmos 2184 Rocket 4.5 19:18:55 10° NNW 19:25:13 63° W 19:31:24 10° S
Meteor 1-11 4.3 19:19:33 10° NNW 19:25:25 86° WSW 19:29:47 18° SSE
Cosmos 1758 Rocket 4.4 19:21:43 10° NNW 19:25:58 48° W 19:30:09 10° S
Cosmos 2237 Rocket 2.8 19:20:42 10° WSW 19:26:17 59° NW 19:31:54 10° NE
Cosmos 1295 Rocket 4.5 19:21:15 10° NNW 19:27:31 85° ENE 19:32:15 19° SSE
SeaSat 1 4.0 19:24:10 10° NE 19:28:42 37° NNW 19:33:13 10° W
RESURS DK-1 3.9 19:25:50 10° NW 19:29:30 29° NNE 19:32:14 15° ENE
Iridium 4 Rocket 3.8 19:26:19 10° N 19:30:41 38° ENE 19:32:05 30° ESE
Cosmos 1953 Rocket 3.9 19:27:56 10° NNW 19:32:21 66° W 19:35:31 19° S
Cosmos 2218 Rocket 4.2 19:27:13 10° N 19:33:16 55° ENE 19:36:38 27° SE
Cosmos 1269 Rocket 4.4 19:28:02 10° SW 19:33:20 68° NW 19:38:39 10° NNE
Cosmos 1892 3.8 19:32:42 10° N 19:36:11 30° ENE 19:36:59 28° E
Cosmos 1461 3.0 19:32:27 10° WNW 19:36:51 83° SSW 19:38:46 34° SE
Cosmos 1656 Rocket 4.1 19:32:06 10° NW 19:37:40 57° WSW 19:41:14 22° S
Cosmos 2251 Rocket 3.5 19:34:44 10° SSW 19:40:02 63° ESE 19:45:22 10° NE
Elektron 3 4.3 19:35:26 10° WSW 19:41:03 68° SSE 19:42:40 30° E
Cosmos 1470 4.4 19:41:56 10° SW 19:45:32 35° WNW 19:49:11 10° N
Cosmos 2154 Rocket 4.4 19:39:49 10° NNW 19:46:08 66° W 19:51:33 14° S
Cosmos 1606 Rocket 3.5 19:43:16 18° S 19:46:29 84° ESE 19:50:59 10° NNE
ATLAS CENTAUR R/B 2.2 19:46:24 10° WNW 19:50:31 46° N 19:53:05 19° ENE
In-Cosmos 22 Rocket 4.4 19:44:57 10° NNW 19:50:42 64° ENE 19:53:24 32° SE
Cosmos 2181 Rocket 4.4 19:48:22 29° SE 19:50:58 43° E 19:56:48 10° NNE
ERS-1 Rocket 3.0 19:48:48 27° S 19:51:38 76° WSW 19:56:42 10° NNW
Cosmos 2369 Rocket 3.8 19:48:30 10° NW 19:53:20 29° WSW 19:57:50 11° SSW
SL-24 R/B 4.5 19:49:25 10° N 19:54:25 86° E 19:57:54 22° S
Resurs 01 Rocket 3.7 19:54:20 10° SW 19:57:56 24° W 20:01:34 10° NW
SPOT 5 2.6 19:56:05 34° S 19:57:58 77° WSW 20:02:21 10° NNW
Cosmos 2344 4.1 19:51:18 10° WNW 19:59:26 77° N 20:10:06 11° E
COSMOS 2428 4.4 19:54:40 10° W 19:59:54 35° NNW 20:05:08 10° NE
NOSS 2-1 (C) 3.7 19:56:22 10° W 20:00:02 66° NNW 20:04:45 10° ENE
NOSS 2-1 (D) 3.7 20:00:33 10° W 20:04:15 65° NNW 20:09:00 10° ENE
Cosmos 1908 3.2 20:02:46 35° SSW 20:04:18 85° WNW 20:08:13 10° NNE
Cosmos 1656 4.1 19:58:58 10° NW 20:04:37 56° NE 20:07:22 29° ESE
Cosmos 921 Rocket 3.1 20:04:00 10° NNW 20:08:12 67° WSW 20:09:21 45° S
MOS 1 Rocket 4.4 20:03:39 10° N 20:08:34 51° WNW 20:13:41 10° SW
SL-8 Rocket 4.0 20:02:18 10° NNW 20:08:38 89° WSW 20:11:56 31° S
Cosmos 2369 4.5 20:03:43 10° NW 20:09:11 46° NNE 20:12:17 24° E
Cosmos 1726 3.2 20:06:29 12° SW 20:09:50 45° WNW 20:13:29 10° N
SAR-Lupe-2 4.3 20:06:19 10° N 20:09:50 53° WNW 20:12:21 17° SW
Cosmos 1300 3.1 20:10:10 45° E 20:10:10 45° E 20:13:37 10° NNE
Cosmos 1825 3.3 20:07:49 10° N 20:11:13 30° ENE 20:11:25 29° ENE
Nadezhda 1 Rocket 4.1 20:06:31 10° SSW 20:12:57 78° WNW 20:19:22 10° NNE
Cosmos 2228 3.4 20:11:03 19° SSW 20:14:02 64° WNW 20:18:22 10° N
CZ-4C R/B 2.8 20:08:57 10° WNW 20:15:07 71° N 20:21:24 15° E
Cosmos 864 Rocket 4.4 20:09:10 10° NNW 20:15:31 83° ENE 20:18:20 35° SSE
Cosmos 2366 rocket 3.9 20:09:36 10° NNW 20:15:49 86° ENE 20:18:37 35° SSE
Cosmos 2219 Rocket 4.0 20:12:59 10° WNW 20:18:00 31° NNW 20:23:01 10° NE
Cosmos 1943 Rocket 4.4 20:14:39 10° WNW 20:18:03 17° W 20:21:27 10° SW
Okean 3 Rocket 4.1 20:14:50 10° N 20:19:02 42° ENE 20:19:42 39° E
Cosmos 2058 2.7 20:17:29 10° NNW 20:21:37 83° ENE 20:22:13 64° SSE
NOSS 3-4 (A) 4.3 20:16:22 10° WNW 20:22:45 46° SW 20:25:57 29° S
NOSS 3-4 (C) 4.3 20:16:28 10° WNW 20:22:51 46° SW 20:26:03 29° S
Cosmos 1340 Rocket 2.7 20:22:10 60° S 20:22:53 82° ESE 20:26:58 10° NNE
Cosmos 1943 3.1 20:19:28 21° SSW 20:23:17 65° ESE 20:28:57 10° NE
Cosmos 1570 Rocket 4.4 20:19:47 10° NNW 20:25:06 55° NE 20:26:58 37° ESE
Cosmos 1763 Rocket 3.6 20:20:18 10° NNW 20:25:35 68° NE 20:27:10 44° ESE
Cosmos 2058 Rocket 3.1 20:24:10 36° SSW 20:26:01 81° WNW 20:30:35 10° NNE
Cosmos 2084 3.9 20:21:35 10° W 20:26:04 66° N 20:29:02 20° ENE
ALOS 2 3.7 20:25:45 29° E 20:26:37 32° ENE 20:30:31 10° N
Cosmos 1190 Rocket 4.3 20:28:37 45° SE 20:29:02 46° ESE 20:34:06 10° NE
Cosmos 1818 4.4 20:31:11 33° E 20:31:11 33° E 20:34:56 10° ENE
Cosmos 1174 3.5 20:27:04 10° NW 20:30:35 90° S 20:30:47 80° SE
Mayak -0.4 20:26:57 10° NNE 20:30:20 36° ENE 20:30:20 36° ENE
ASTEX 1 3.7 20:30:29 46° ESE 20:31:30 54° ENE 20:36:22 10° N
Cosmos 1953 4.5 20:32:14 10° WSW 20:35:35 25° WNW 20:38:58 10° N
NOSS 3-3 (A) 4.0 20:31:44 10° SW 20:37:44 59° SE 20:44:37 10° ENE
NOSS 3-3 (C) 4.0 20:31:50 10° SW 20:37:51 59° SE 20:44:44 10° ENE
Cosmos 1408 2.8 20:34:46 10° N 20:38:04 58° NE 20:38:04 58° NE
SL-08 R/B 4.4 20:33:01 10° NNW 20:39:11 87° ENE 20:41:23 43° SSE
SL-16 R/B 3.1 20:34:40 10° WSW 20:40:11 50° NW 20:45:44 10° NE
Thor Agena Rocket 4.0 20:37:12 10° NNE 20:41:59 41° E 20:42:05 41° E
Cosmos 2333 Rocket 4.1 20:37:04 10° WNW 20:42:02 30° N 20:47:00 10° NE
Cosmos 1697 Rocket 3.0 20:36:32 10° NW 20:42:10 60° NE 20:44:20 37° ESE
SL-16 R/B 3.7 20:37:30 10° NW 20:42:37 33° NNE 20:47:43 10° E
Cosmos 192 4.3 20:37:51 10° NW 20:42:50 80° WSW 20:43:48 57° SSE
Cosmos 220 Rocket 3.9 20:39:04 10° NW 20:43:21 75° WSW 20:43:43 69° SSW
Cosmos 1076 Rocket 3.7 20:43:43 10° NNW 20:47:56 60° W 20:48:32 54° SW
Terra 2.7 20:49:36 32° SW 20:51:09 43° W 20:55:43 10° NNW
NOSS 2-1 (E) 4.0 20:48:44 10° W 20:52:37 60° N 20:57:44 10° E
Cosmos 2208 Rocket 4.1 20:47:38 10° NNW 20:52:49 67° NE 20:54:00 51° ESE
Cosmos 841 Rocket 3.6 20:49:03 10° NNW 20:54:21 67° NE 20:55:36 50° ESE
USA 234 3.2 20:48:04 10° E 20:54:35 63° SSE 21:01:04 10° WSW
Cosmos 1766 Rocket 3.6 20:50:21 10° N 20:54:51 67° ENE 20:55:09 64° E
ATLAS 2AS CENTAUR R/B 3.8 20:48:15 10° WNW 20:54:59 34° WSW 20:57:41 26° SSW
Cosmos 676 Rocket 4.3 20:55:52 47° ESE 20:55:52 47° ESE 21:00:47 10° NE
Spot 4 3.7 20:56:21 65° SSE 20:57:03 84° ENE 21:01:54 10° NNW
Cosmos 1140 Rocket 3.4 20:56:44 59° SE 20:57:05 60° ESE 21:02:12 10° NE
Cosmos 2322 Rocket 3.7 20:52:37 10° NW 20:57:45 33° NNE 21:02:50 10° E
Cosmos 468 Rocket 4.0 20:53:15 10° NW 20:58:29 73° WSW 20:59:25 58° S
Cosmos 2360 Rocket 3.9 20:53:49 10° NW 20:58:44 30° N 21:03:39 10° ENE
Cosmos 1821 Rocket 4.0 20:53:56 10° NNW 21:00:17 80° ENE 21:02:13 48° SSE
Cosmos 1603 3.8 20:55:53 10° SW 21:01:32 75° NW 21:07:11 10° NE
Cosmos 2239 Rocket 4.5 20:55:22 10° NNW 21:01:36 75° ENE 21:03:21 49° SE
Cosmos 540 Rocket 3.6 20:56:27 10° NNW 21:01:39 68° NE 21:02:43 53° ESE
Meteor 2-1 Rocket 4.3 21:01:10 52° SSE 21:02:28 67° E 21:08:22 10° NNE
CZ-2C R/B 4.5 20:59:09 10° N 21:03:35 29° NW 21:07:59 10° WSW
Cosmos 407 Rocket 3.3 21:04:45 56° SSW 21:05:52 82° ESE 21:11:02 10° NE
Iridium 2 4.3 21:05:38 48° W 21:05:56 50° WNW 21:09:41 10° N
Cosmos 1980 Rocket 2.6 21:01:33 10° NW 21:07:05 56° NE 21:09:09 36° E
Cosmos-2242 3.7 21:07:53 43° ENE 21:07:53 43° ENE 21:11:27 10° NNE
Cosmos 2151 2.8 21:03:15 10° NNW 21:07:30 82° WSW 21:07:30 82° WSW
RESURS DK-1 2.4 21:03:57 10° NW 21:08:07 75° NE 21:08:07 75° NE
COSMOS 2455 3.6 21:04:22 10° NW 21:09:54 39° WSW 21:11:09 35° SSW
Iridium 4 Rocket 4.1 21:06:25 10° NNW 21:10:44 40° W 21:11:53 33° WSW
Cosmos 1500 Rocket 4.4 21:06:55 10° N 21:10:59 38° ENE 21:11:06 37° ENE
Cosmos 2237 Rocket 4.0 21:06:22 10° WNW 21:11:23 31° NNW 21:16:26 10° NE
Cosmos 1892 3.5 21:08:19 10° NNW 21:11:59 44° W 21:11:59 44° W
Aureole 1 Rocket 4.1 21:07:14 19° SSW 21:12:52 89° WNW 21:18:53 10° NNE
Cosmos 1812 Rocket 3.4 21:13:43 81° WSW 21:13:52 84° WNW 21:18:15 10° NNE
Cosmos 489 Rocket 4.4 21:08:45 10° NW 21:15:00 80° WSW 21:16:33 53° SSE
Cosmos 2278 3.9 21:10:00 10° NW 21:15:40 67° NE 21:17:16 46° ESE
Cosmos 1605 Rocket 4.3 21:12:30 10° N 21:18:30 54° ENE 21:20:05 43° ESE
USA 32 4.3 21:15:52 10° NNW 21:21:04 60° W 21:22:12 48° SW
Cosmos 1934 Rocket 4.0 21:15:29 10° NNW 21:21:53 75° ENE 21:23:29 52° SE
Helios 1A 3.2 21:22:32 60° ENE 21:22:32 60° ENE 21:26:34 10° NNW
Cosmos 1455 3.1 21:25:07 43° NE 21:25:07 43° NE 21:27:52 10° NNE
Cosmos 1954 Rocket 3.9 21:25:12 67° SE 21:25:23 68° ESE 21:30:35 10° NE
Cosmos 1356 Rocket 3.9 21:30:20 53° ENE 21:30:20 53° ENE 21:33:56 10° NNE
ATLAS CENTAUR R/B 1.6 21:25:42 10° WNW 21:29:15 63° NW 21:29:15 63° NW
Cosmos 614 Rocket 4.2 21:27:58 34° SW 21:30:14 68° NW 21:35:28 10° NNE
Cosmos 2082 Rocket 4.3 21:33:29 13° E 21:33:29 13° E 21:35:24 10° ENE
EO 1 Del DPAF 3.7 21:33:52 10° NNE 21:36:58 57° N 21:36:58 57° N
Cosmos 1743 Rocket 3.8 21:34:14 10° N 21:38:34 63° ENE 21:38:34 63° ENE
Meteor 2-3 Rocket 3.7 21:32:57 10° NNW 21:38:49 89° ENE 21:39:48 64° SSE
SL-16 R/B 4.2 21:36:32 12° E 21:41:06 28° NE 21:46:14 10° NNW
Meteor 2-10 Rocket 3.4 21:41:44 72° SE 21:42:01 74° ESE 21:47:21 10° NNE
Cosmos 1408 Rocket 3.6 21:40:27 10° NNW 21:44:46 74° WNW 21:44:46 74° WNW
Cosmos 1300 4.3 21:45:05 27° W 21:45:46 28° WNW 21:49:10 10° N
Cosmos 1825 3.3 21:43:14 10° NNW 21:46:13 39° WNW 21:46:13 39° WNW
Cosmos 1656 4.0 21:42:48 10° NW 21:48:21 52° WSW 21:48:47 50° SW
Cosmos 1814 Rocket 4.0 21:45:03 10° NW 21:50:23 68° WSW 21:50:42 66° SW
NOSS 2-1 (C) 4.0 21:46:53 10° WNW 21:50:57 66° NNE 21:53:09 33° E
Cosmos 2369 3.6 21:48:04 10° NW 21:53:44 69° SW 21:54:13 66° SSW
NOSS 2-1 (D) 4.0 21:51:05 10° WNW 21:55:10 67° NNE 21:57:15 35° E
ATLAS 5 CENTAUR R/B 3.1 21:57:41 27° E 21:57:41 27° E 22:00:21 10° ENE
ALOS 2 3.0 22:03:08 54° W 22:03:08 54° W 22:07:09 10° NNW
Cosmos 1833 Rocket 3.9 22:03:29 27° E 22:03:29 27° E 22:07:35 10° NE
Cosmos 2219 Rocket 4.0 21:58:31 10° NW 22:03:29 30° NNE 22:08:25 10° ENE
CZ-4C R/B 2.7 21:57:26 10° WNW 22:04:01 78° SSW 22:06:33 45° SE
Cosmos 2084 3.7 22:01:26 10° WNW 22:05:35 71° NNW 22:05:35 71° NNW
Mayak -0.3 22:02:35 10° N 22:06:32 41° WNW 22:06:55 40° WNW
Cosmos 1850 Rocket 4.0 22:07:15 64° E 22:07:15 64° E 22:12:10 10° NE
Cosmos 1763 Rocket 4.5 22:02:27 10° NW 22:07:08 33° WSW 22:07:12 33° WSW
Cosmos 1943 4.1 22:02:08 10° WSW 22:07:39 48° NNW 22:13:11 10° NE
Cosmos 1862 4.2 22:04:32 10° N 22:08:03 43° NE 22:08:03 43° NE
ASTEX 1 4.5 22:09:59 33° WSW 22:10:46 35° W 22:15:21 10° NNW
IRAS Rocket 4.3 22:11:55 59° ESE 22:12:54 74° ENE 22:18:32 10° NNW
Cosmos 1818 3.5 22:11:44 50° WSW 22:13:12 85° NNW 22:18:43 10° ENE
Cosmos 1842 Rocket 4.1 22:14:39 52° ENE 22:14:39 52° ENE 22:18:18 10° NNE
Cosmos 2344 4.1 22:05:36 10° WNW 22:14:16 71° SW 22:20:03 33° SE
Cosmos 1666 Rocket 4.4 22:10:17 10° N 22:14:24 40° ENE 22:14:25 40° ENE
Nadezhda 3 Rocket 4.1 22:13:04 50° SW 22:14:46 73° WNW 22:21:07 10° NNE
Thor Agena Rocket 4.1 22:16:35 10° NNE 22:21:28 50° WNW 22:22:41 41° WSW
MOS 1-B Rocket 4.1 22:17:28 10° NNE 22:23:05 55° ESE 22:23:48 52° SE
Cosmos 1633 3.9 22:20:09 10° NNW 22:22:30 39° NNW 22:22:30 39° NNW
SL-16 R/B 4.1 22:20:33 10° WNW 22:25:30 30° N 22:30:29 10° NE
Cosmos 1697 Rocket 3.1 22:20:43 10° NW 22:26:03 47° WSW 22:26:03 47° WSW
SL-16 R/B 2.5 22:22:02 10° NW 22:27:42 64° NE 22:29:37 41° ESE
Cosmos 2333 Rocket 3.8 22:22:39 10° NW 22:27:48 34° NNE 22:32:56 10° E
Cosmos 1153 Rocket 4.4 22:21:55 10° NNW 22:28:12 89° WSW 22:29:23 62° S
Cosmos 1802 Rocket 4.4 22:22:11 10° N 22:28:26 57° ENE 22:30:13 43° ESE
NOSS 3-3 (A) 4.2 22:22:13 10° WSW 22:28:38 77° NNW 22:36:03 10° ENE
NOSS 3-3 (C) 4.2 22:22:20 10° WSW 22:28:44 77° NNW 22:36:09 10° ENE
Helios 1B rocket 3.7 22:25:16 10° NNE 22:28:16 34° ENE 22:28:16 34° ENE
Cosmos 1346 Rocket 3.6 22:26:04 10° N 22:29:25 48° NE 22:29:25 48° NE
Meteor 1-27 4.1 22:32:03 68° SSE 22:32:41 75° ESE 22:38:31 10° NNE
Cosmos 1727 Rocket 4.2 22:33:51 51° SE 22:34:56 58° E 22:41:08 10° NNE
USA 234 3.1 22:31:35 10° ESE 22:38:06 67° S 22:44:38 10° W
Nimbus 7 Rocket 4.4 22:35:04 10° NNE 22:40:57 75° WNW 22:42:12 56° SW
Cosmos 1400 Rocket 4.0 22:43:03 38° ENE 22:43:03 38° ENE 22:46:00 10° NNE
Cosmos 2322 Rocket 2.4 22:37:03 10° NW 22:42:44 67° NE 22:44:37 42° ESE
Cosmos 2221 2.7 22:43:19 69° NNE 22:43:19 69° NNE 22:47:14 10° NNE
NOSS 2-1 (E) 3.9 22:39:08 10° WNW 22:43:31 83° NNE 22:45:08 46° ESE
Cosmos 2360 Rocket 2.9 22:38:26 10° NW 22:43:56 50° NE 22:47:51 19° ESE
Cosmos-2242 4.2 22:44:42 33° WNW 22:45:00 34° WNW 22:49:00 10° N
Cosmos 2100 Rocket 3.9 22:39:21 10° NNW 22:45:34 83° ENE 22:46:49 59° SSE
RESURS DK-1 4.4 22:42:22 10° WNW 22:44:01 19° WNW 22:44:01 19° WNW
Cosmos 1238 Rocket 4.5 22:44:11 10° N 22:45:36 24° N 22:45:36 24° N
Cosmos 1459 Rocket 4.0 22:41:57 10° NNW 22:48:24 81° ENE 22:49:51 56° SSE
Cosmos 1805 Rocket 3.8 22:44:10 10° NNW 22:48:05 63° NW 22:48:05 63° NW
Sich 1 3.2 22:45:56 10° NNW 22:49:57 72° NNW 22:49:57 72° NNW
Cosmos 1980 Rocket 2.5 22:45:44 10° NW 22:50:54 51° WSW 22:50:54 51° WSW
Cosmos 2016 Rocket 4.2 22:45:14 10° NNW 22:51:38 67° ENE 22:53:29 46° SE
Spot 1 4.2 22:56:13 73° NNW 22:56:13 73° NNW 23:00:06 10° NNW
Cosmos 2237 Rocket 4.0 22:52:00 10° NW 22:56:59 30° NNE 23:01:58 10° ENE
Cosmos 1741 Rocket 4.1 22:57:13 60° WSW 22:58:02 71° NW 23:03:24 10° NNE
Cosmos 1470 Rocket 4.2 22:53:49 10° N 22:58:10 49° ENE 22:58:22 49° ENE
Cosmos 1340 3.8 22:55:35 10° NNW 22:58:10 41° NNW 22:58:10 41° NNW
Cosmos 2278 4.4 22:54:23 10° NW 22:59:11 39° WSW 22:59:11 39° WSW
Cosmos 1455 4.1 23:00:01 23° WNW 23:00:05 23° WNW 23:03:10 10° N
Cosmos 1241 Rocket 4.4 22:55:51 10° WNW 23:02:08 85° NE 23:05:42 28° ESE
Cosmos 1605 Rocket 4.5 22:58:07 10° NNW 23:03:51 43° W 23:04:45 41° WSW
DELTA 2 DEB (DPAF) 4.2 23:04:28 76° NE 23:04:28 76° NE 23:08:50 10° NNW
SL-24 R/B - RUBIN 2 4.4 23:04:15 43° WSW 23:06:29 84° NNW 23:13:09 10° ENE
MOZ.5/SAFIR/RUBIN 5/SL-8 4.3 23:05:43 50° E 23:06:29 56° ENE 23:11:10 10° NNW
COSMOS 2406 3.1 23:07:44 69° SSW 23:08:27 85° SE 23:14:13 10° NE
ATLAS CENTAUR R/B 3.8 23:04:54 10° WNW 23:05:26 13° WNW 23:05:26 13° WNW
Cosmos 968 Rocket 4.4 23:08:31 35° ESE 23:08:38 35° ESE 23:13:22 10° NE
Cosmos 2173 Rocket 3.8 23:03:30 10° NNW 23:09:37 79° W 23:10:40 62° SSW
Cosmos 1633 Rocket 3.1 23:08:27 10° NNW 23:12:33 75° NNW 23:12:33 75° NNW
Cosmos 2082 Rocket 2.5 23:15:19 50° SE 23:15:37 51° ESE 23:21:06 10° NE
CZ-4C R/B 4.0 23:18:56 48° N 23:18:56 48° N 23:21:39 10° NNW
Meteor 1-29 4.4 23:16:37 10° NNE 23:18:48 37° NNE 23:18:48 37° NNE
Cosmos 2061 Rocket 3.9 23:14:53 10° NNW 23:21:08 87° WSW 23:22:33 57° S
Cosmos 2237 4.4 23:15:24 10° NW 23:21:09 71° NE 23:24:04 30° ESE
Cosmos 783 Rocket 4.4 23:16:23 10° NW 23:21:43 72° WSW 23:21:52 72° SW
Cosmos 1315 Rocket 3.6 23:23:39 44° ENE 23:23:39 44° ENE 23:27:07 10° NNE
SL-16 R/B 2.6 23:21:37 41° SE 23:23:59 75° ENE 23:30:15 10° NNW
Meteor 1-20 Rocket 4.4 23:22:14 10° NNW 23:28:07 73° ENE 23:29:49 47° SE
COSMOS 2428 3.7 23:25:41 10° NW 23:31:13 46° NNE 23:36:44 10° ESE
SME Rocket 3.7 23:31:15 10° NNE 23:37:18 61° WNW 23:38:01 54° W
Cosmos 1869 4.2 23:39:11 42° NW 23:39:11 42° NW 23:42:33 10° N
Cosmos 1538 Rocket 4.0 23:33:53 10° NNW 23:39:11 84° ENE 23:40:26 54° SE
Cosmos 1680 Rocket 4.4 23:34:15 10° NNW 23:39:18 46° NE 23:44:21 10° ESE
Cosmos 2322 4.1 23:34:06 10° NW 23:39:48 62° NE 23:45:29 10° ESE
ATLAS 5 CENTAUR R/B 1.8 23:39:11 60° W 23:40:00 78° NNW 23:45:25 10° ENE
Mayak 1.5 23:39:38 10° NNW 23:41:09 12° NW 23:42:41 10° WNW
NOSS 2-1 (C) 4.3 23:37:08 10° WNW 23:40:28 49° W 23:40:28 49° W
Cosmos 1000 Rocket 4.4 23:42:33 53° S 23:44:11 88° E 23:50:34 10° NNE
NOSS 2-1 (D) 4.4 23:41:20 10° WNW 23:44:33 46° W 23:44:33 46° W
Cosmos 1833 Rocket 2.6 23:45:09 60° SW 23:46:15 88° NW 23:51:57 10° NE
Cosmos 2219 Rocket 2.9 23:43:01 10° NW 23:48:35 53° NE 23:54:04 10° ESE
CZ-4 R/B 4.0 23:45:00 10° NNE 23:49:45 62° WNW 23:50:19 57° W
PSLV R/B 3.6 23:46:16 10° NNE 23:50:34 69° WNW 23:50:37 69° WNW
Cosmos 1151 Rocket 3.1 23:51:46 65° ESE 23:51:52 65° E 23:56:12 10° NNE
CZ-4C R/B 3.5 23:45:59 10° WNW 23:51:42 35° WSW 23:51:42 35° WSW
CZ-2D R/B 3.0 23:47:22 10° NNE 23:52:32 41° E 23:54:16 32° SE
Cosmos 1933 Rocket 3.4 23:48:13 10° NNW 23:52:36 85° W 23:52:36 85° W
Meteor 1-14 Rocket 4.5 23:47:14 10° NNW 23:53:17 75° ENE 23:55:49 37° SSE
Cosmos 1515 Rocket 4.1 23:53:47 46° ESE 23:54:08 47° E 23:58:20 10° NNE
